Year,Month,Day,Hour,Minute,Value (Times are PST for barometer in hPa)
2023,04,29,00,00,990.08
2023,04,29,00,01,990.08
2023,04,29,00,02,990.08
2023,04,29,00,03,990.08
2023,04,29,00,04,991.45
2023,04,29,00,05,995.42
2023,04,29,00,06,995.80
2023,04,29,00,07,995.80
2023,04,29,00,08,995.80
2023,04,29,00,09,995.80
2023,04,29,00,10,995.80
2023,04,29,00,11,995.80
2023,04,29,00,12,995.80
2023,04,29,00,13,995.80
2023,04,29,00,14,995.80
2023,04,29,00,15,995.80
2023,04,29,00,16,995.80
2023,04,29,00,17,995.80
2023,04,29,00,18,995.80
2023,04,29,00,19,995.80
2023,04,29,00,20,995.80
2023,04,29,00,21,995.80
2023,04,29,00,22,995.80
2023,04,29,00,23,995.80
2023,04,29,00,24,995.80
2023,04,29,00,25,995.80
2023,04,29,00,26,995.80
2023,04,29,00,27,995.80
2023,04,29,00,28,995.80
2023,04,29,00,29,996.23
2023,04,29,00,30,997.53
2023,04,29,00,31,997.53
2023,04,29,00,32,997.53
2023,04,29,00,33,997.53
2023,04,29,00,34,997.53
2023,04,29,00,35,997.53
2023,04,29,00,36,1000.79
2023,04,29,00,37,1009.92
2023,04,29,00,38,1009.92
2023,04,29,00,39,1009.92
2023,04,29,00,40,1009.92
2023,04,29,00,41,1009.92
2023,04,29,00,42,1009.92
2023,04,29,00,43,1009.91
2023,04,29,00,44,1009.86
2023,04,29,00,45,1009.86
2023,04,29,00,46,1009.86
2023,04,29,00,47,1009.86
2023,04,29,00,48,1008.23
2023,04,29,00,49,1003.35
2023,04,29,00,50,1003.35
2023,04,29,00,51,1003.35
2023,04,29,00,52,1003.35
2023,04,29,00,53,1003.35
2023,04,29,00,54,1003.35
2023,04,29,00,55,1003.35
2023,04,29,00,56,1003.35
2023,04,29,00,57,1002.95
2023,04,29,00,58,1001.76
2023,04,29,00,59,1001.34
2023,04,29,01,00,1000.17
2023,04,29,01,01,1000.17
2023,04,29,01,02,1000.17
2023,04,29,01,03,1000.17
2023,04,29,01,04,1000.17
2023,04,29,01,05,1000.17
2023,04,29,01,06,1000.17
2023,04,29,01,07,1000.17
2023,04,29,01,08,1000.17
2023,04,29,01,09,1000.17
2023,04,29,01,10,1000.17
2023,04,29,01,11,1000.17
2023,04,29,01,12,1000.17
2023,04,29,01,13,1000.17
2023,04,29,01,14,1000.17
2023,04,29,01,15,1000.17
2023,04,29,01,16,1000.17
2023,04,29,01,17,1000.17
2023,04,29,01,18,1000.17
2023,04,29,01,19,1000.17
2023,04,29,01,20,1000.17
2023,04,29,01,21,1000.17
2023,04,29,01,22,1000.17
2023,04,29,01,23,1001.20
2023,04,29,01,24,1005.08
2023,04,29,01,25,1005.08
2023,04,29,01,26,1005.08
2023,04,29,01,27,1005.08
2023,04,29,01,28,1005.08
2023,04,29,01,29,1005.08
2023,04,29,01,30,1005.08
2023,04,29,01,31,1005.08
2023,04,29,01,32,1005.08
2023,04,29,01,33,1005.08
2023,04,29,01,34,1005.08
2023,04,29,01,35,1006.74
2023,04,29,01,36,1011.70
2023,04,29,01,37,1011.65
2023,04,29,01,38,1011.72
2023,04,29,01,39,1011.72
2023,04,29,01,40,1011.72
2023,04,29,01,41,1011.72
2023,04,29,01,42,1011.72
2023,04,29,01,43,1011.72
2023,04,29,01,44,1011.72
2023,04,29,01,45,1011.72
2023,04,29,01,46,1011.72
2023,04,29,01,47,1011.72
2023,04,29,01,48,1011.72
2023,04,29,01,49,1011.72
2023,04,29,01,50,1011.72
2023,04,29,01,51,1011.72
2023,04,29,01,52,1011.65
2023,04,29,01,53,1011.50
2023,04,29,01,54,1011.65
2023,04,29,01,55,1011.65
2023,04,29,01,56,1011.65
2023,04,29,01,57,1011.65
2023,04,29,01,58,1011.65
2023,04,29,01,59,1011.65
2023,04,29,02,00,1011.65
2023,04,29,02,01,1011.65
2023,04,29,02,02,1011.65
2023,04,29,02,03,1011.65
2023,04,29,02,04,1011.65
2023,04,29,02,05,1011.65
2023,04,29,02,06,1011.65
2023,04,29,02,07,1009.23
2023,04,29,02,08,1002.46
2023,04,29,02,09,1002.44
2023,04,29,02,10,1002.44
2023,04,29,02,11,1002.44
2023,04,29,02,12,1002.44
2023,04,29,02,13,1002.44
2023,04,29,02,14,1002.44
2023,04,29,02,15,1002.02
2023,04,29,02,16,1000.75
2023,04,29,02,17,1000.75
2023,04,29,02,18,1000.75
2023,04,29,02,19,1000.80
2023,04,29,02,20,1000.98
2023,04,29,02,21,1000.98
2023,04,29,02,22,1003.65
2023,04,29,02,23,1011.62
2023,04,29,02,24,1011.56
2023,04,29,02,25,1011.59
2023,04,29,02,26,1011.63
2023,04,29,02,27,1011.67
2023,04,29,02,28,1011.66
2023,04,29,02,29,1011.68
2023,04,29,02,30,1011.67
2023,04,29,02,31,1011.64
2023,04,29,02,32,1011.61
2023,04,29,02,33,1011.58
2023,04,29,02,34,1011.59
2023,04,29,02,35,1011.64
2023,04,29,02,36,1011.66
2023,04,29,02,37,1011.62
2023,04,29,02,38,1011.61
2023,04,29,02,39,1011.59
2023,04,29,02,40,1011.62
2023,04,29,02,41,1011.64
2023,04,29,02,42,1011.72
2023,04,29,02,43,1011.74
2023,04,29,02,44,1011.82
2023,04,29,02,45,1011.82
2023,04,29,02,46,1011.83
2023,04,29,02,47,1011.84
2023,04,29,02,48,1011.83
2023,04,29,02,49,1011.85
2023,04,29,02,50,1011.87
2023,04,29,02,51,1011.93
2023,04,29,02,52,1011.96
2023,04,29,02,53,1012.02
2023,04,29,02,54,1012.03
2023,04,29,02,55,1012.04
2023,04,29,02,56,1012.00
2023,04,29,02,57,1012.03
2023,04,29,02,58,1012.06
2023,04,29,02,59,1012.05
2023,04,29,03,00,1012.03
2023,04,29,03,01,1012.06
2023,04,29,03,02,1012.07
2023,04,29,03,06,1012.06
2023,04,29,03,07,1012.07
2023,04,29,03,08,1012.06
2023,04,29,03,09,1012.01
2023,04,29,03,10,1011.99
2023,04,29,03,11,1011.96
2023,04,29,03,12,1011.92
2023,04,29,03,13,1011.92
2023,04,29,03,14,1011.92
2023,04,29,03,15,1011.95
2023,04,29,03,16,1011.99
2023,04,29,03,17,1011.99
2023,04,29,03,18,1011.97
2023,04,29,03,19,1011.95
2023,04,29,03,20,1011.94
2023,04,29,03,21,1011.93
2023,04,29,03,22,1011.93
2023,04,29,03,23,1011.90
2023,04,29,03,24,1011.92
2023,04,29,03,25,1011.91
2023,04,29,03,26,1011.86
2023,04,29,03,27,1011.83
2023,04,29,03,28,1011.84
2023,04,29,03,29,1011.81
2023,04,29,03,30,1011.79
2023,04,29,03,31,1011.83
2023,04,29,03,32,1011.89
2023,04,29,03,33,1011.87
2023,04,29,03,34,1011.84
2023,04,29,03,35,1011.82
2023,04,29,03,36,1011.81
2023,04,29,03,37,1011.80
2023,04,29,03,38,1011.82
2023,04,29,03,39,1011.85
2023,04,29,03,40,1011.89
2023,04,29,03,41,1011.90
2023,04,29,03,42,1011.91
2023,04,29,03,43,1011.91
2023,04,29,03,44,1011.95
2023,04,29,03,45,1011.95
2023,04,29,03,46,1011.97
2023,04,29,03,47,1012.02
2023,04,29,03,48,1012.08
2023,04,29,03,49,1012.13
2023,04,29,03,50,1012.16
2023,04,29,03,51,1012.16
2023,04,29,03,52,1012.17
2023,04,29,03,53,1012.18
2023,04,29,03,54,1012.14
2023,04,29,03,55,1012.13
2023,04,29,03,56,1012.16
2023,04,29,03,57,1012.16
2023,04,29,03,58,1012.19
2023,04,29,03,59,1012.21
2023,04,29,04,00,1012.19
2023,04,29,04,01,1012.19
2023,04,29,04,02,1012.19
2023,04,29,04,03,1012.21
2023,04,29,04,04,1012.21
2023,04,29,04,05,1012.21
2023,04,29,04,06,1012.23
2023,04,29,04,07,1012.21
2023,04,29,04,08,1012.18
2023,04,29,04,09,1012.14
2023,04,29,04,10,1012.13
2023,04,29,04,11,1012.14
2023,04,29,04,12,1012.15
2023,04,29,04,13,1012.20
2023,04,29,04,14,1012.24
2023,04,29,04,15,1012.26
2023,04,29,04,16,1012.27
2023,04,29,04,17,1012.29
2023,04,29,04,18,1012.28
2023,04,29,04,19,1012.26
2023,04,29,04,20,1012.26
2023,04,29,04,21,1012.29
2023,04,29,04,22,1012.33
2023,04,29,04,23,1012.34
2023,04,29,04,24,1012.35
2023,04,29,04,25,1012.34
2023,04,29,04,26,1012.36
2023,04,29,04,27,1012.36
2023,04,29,04,28,1012.38
2023,04,29,04,29,1012.41
2023,04,29,04,30,1012.43
2023,04,29,04,31,1012.42
2023,04,29,04,32,1012.41
2023,04,29,04,33,1012.42
2023,04,29,04,34,1012.38
2023,04,29,04,35,1012.36
2023,04,29,04,36,1012.36
2023,04,29,04,37,1012.36
2023,04,29,04,38,1012.38
2023,04,29,04,39,1012.40
2023,04,29,04,40,1012.42
2023,04,29,04,41,1012.46
2023,04,29,04,42,1012.47
2023,04,29,04,43,1012.50
2023,04,29,04,44,1012.50
2023,04,29,04,45,1012.50
2023,04,29,04,46,1012.51
2023,04,29,04,47,1012.53
2023,04,29,04,48,1012.52
2023,04,29,04,49,1012.51
2023,04,29,04,50,1012.50
2023,04,29,04,51,1012.49
2023,04,29,04,52,1012.53
2023,04,29,04,53,1012.54
2023,04,29,04,54,1012.55
2023,04,29,04,55,1012.53
2023,04,29,04,56,1012.54
2023,04,29,04,57,1012.56
2023,04,29,04,58,1012.59
2023,04,29,04,59,1012.62
2023,04,29,05,00,1012.61
2023,04,29,05,01,1012.63
2023,04,29,05,02,1012.66
2023,04,29,05,03,1012.70
2023,04,29,05,04,1012.69
2023,04,29,05,05,1012.71
2023,04,29,05,06,1012.77
2023,04,29,05,07,1012.77
2023,04,29,05,08,1012.78
2023,04,29,05,09,1012.82
2023,04,29,05,10,1012.84
2023,04,29,05,11,1012.81
2023,04,29,05,12,1012.80
2023,04,29,05,13,1012.84
2023,04,29,05,14,1012.85
2023,04,29,05,15,1012.86
2023,04,29,05,16,1012.82
2023,04,29,05,17,1012.80
2023,04,29,05,18,1012.82
2023,04,29,05,19,1012.84
2023,04,29,05,20,1012.82
2023,04,29,05,21,1012.80
2023,04,29,05,22,1012.82
2023,04,29,05,23,1012.83
2023,04,29,05,24,1012.80
2023,04,29,05,25,1012.82
2023,04,29,05,26,1012.81
2023,04,29,05,27,1012.78
2023,04,29,05,28,1012.81
2023,04,29,05,29,1012.83
2023,04,29,05,30,1012.82
2023,04,29,05,31,1012.84
2023,04,29,05,32,1012.84
2023,04,29,05,33,1012.82
2023,04,29,05,34,1012.80
2023,04,29,05,35,1012.80
2023,04,29,05,36,1012.79
2023,04,29,05,37,1012.78
2023,04,29,05,38,1012.80
2023,04,29,05,39,1012.80
2023,04,29,05,40,1012.81
2023,04,29,05,41,1012.85
2023,04,29,05,42,1012.87
2023,04,29,05,43,1012.87
2023,04,29,05,44,1012.88
2023,04,29,05,45,1012.90
2023,04,29,05,46,1012.90
2023,04,29,05,47,1012.89
2023,04,29,05,48,1012.87
2023,04,29,05,49,1012.86
2023,04,29,05,50,1012.82
2023,04,29,05,51,1012.79
2023,04,29,05,52,1012.77
2023,04,29,05,53,1012.78
2023,04,29,05,54,1012.83
2023,04,29,05,55,1012.88
2023,04,29,05,56,1012.89
2023,04,29,05,57,1012.88
2023,04,29,05,58,1012.92
2023,04,29,05,59,1012.97
2023,04,29,06,00,1012.97
2023,04,29,06,01,1012.97
2023,04,29,06,02,1012.98
2023,04,29,06,03,1013.00
2023,04,29,06,04,1013.00
2023,04,29,06,05,1013.02
2023,04,29,06,06,1013.05
2023,04,29,06,07,1012.99
2023,04,29,06,08,1012.97
2023,04,29,06,09,1012.96
2023,04,29,06,10,1012.97
2023,04,29,06,11,1013.04
2023,04,29,06,12,1013.04
2023,04,29,06,13,1013.05
2023,04,29,06,14,1013.06
2023,04,29,06,15,1013.07
2023,04,29,06,16,1013.12
2023,04,29,06,17,1013.13
2023,04,29,06,18,1013.13
2023,04,29,06,19,1013.17
2023,04,29,06,20,1013.17
2023,04,29,06,21,1013.16
2023,04,29,06,22,1013.15
2023,04,29,06,23,1013.17
2023,04,29,06,24,1013.18
2023,04,29,06,25,1013.20
2023,04,29,06,26,1013.19
2023,04,29,06,27,1013.24
2023,04,29,06,28,1013.24
2023,04,29,06,29,1013.22
2023,04,29,06,30,1013.18
2023,04,29,06,31,1013.23
2023,04,29,06,32,1013.27
2023,04,29,06,33,1013.27
2023,04,29,06,34,1013.33
2023,04,29,06,35,1013.36
2023,04,29,06,36,1013.30
2023,04,29,06,37,1013.28
2023,04,29,06,38,1013.28
2023,04,29,06,39,1013.28
2023,04,29,06,40,1013.28
2023,04,29,06,41,1013.29
2023,04,29,06,42,1013.30
2023,04,29,06,43,1013.28
2023,04,29,06,44,1013.27
2023,04,29,06,45,1013.24
2023,04,29,06,46,1013.24
2023,04,29,06,47,1013.25
2023,04,29,06,48,1013.28
2023,04,29,06,49,1013.30
2023,04,29,06,50,1013.35
2023,04,29,06,51,1013.38
2023,04,29,06,52,1013.39
2023,04,29,06,53,1013.40
2023,04,29,06,54,1013.39
2023,04,29,06,55,1013.42
2023,04,29,06,56,1013.39
2023,04,29,06,57,1013.33
2023,04,29,06,58,1013.38
2023,04,29,06,59,1013.38
2023,04,29,07,00,1013.37
2023,04,29,07,01,1013.35
2023,04,29,07,02,1013.38
2023,04,29,07,03,1013.37
2023,04,29,07,04,1013.33
2023,04,29,07,05,1013.31
2023,04,29,07,06,1013.34
2023,04,29,07,07,1013.40
2023,04,29,07,08,1013.39
2023,04,29,07,09,1013.39
2023,04,29,07,10,1013.34
2023,04,29,07,11,1013.34
2023,04,29,07,12,1013.34
2023,04,29,07,13,1013.34
2023,04,29,07,14,1013.35
2023,04,29,07,15,1013.40
2023,04,29,07,16,1013.44
2023,04,29,07,17,1013.44
2023,04,29,07,18,1013.42
2023,04,29,07,19,1013.40
2023,04,29,07,20,1013.44
2023,04,29,07,21,1013.44
2023,04,29,07,22,1013.44
2023,04,29,07,23,1013.44
2023,04,29,07,24,1013.43
2023,04,29,07,25,1013.43
2023,04,29,07,26,1013.47
2023,04,29,07,27,1013.48
2023,04,29,07,28,1013.56
2023,04,29,07,29,1013.58
2023,04,29,07,30,1013.58
2023,04,29,07,31,1013.58
2023,04,29,07,32,1013.57
2023,04,29,07,33,1013.57
2023,04,29,07,34,1013.60
2023,04,29,07,35,1013.58
2023,04,29,07,36,1013.59
2023,04,29,07,37,1013.60
2023,04,29,07,38,1013.59
2023,04,29,07,39,1013.62
2023,04,29,07,40,1013.64
2023,04,29,07,41,1013.62
2023,04,29,07,42,1013.63
2023,04,29,07,43,1013.58
2023,04,29,07,44,1013.59
2023,04,29,07,45,1013.62
2023,04,29,07,46,1013.65
2023,04,29,07,47,1013.65
2023,04,29,07,48,1013.66
2023,04,29,07,49,1013.68
2023,04,29,07,50,1013.68
2023,04,29,07,51,1013.68
2023,04,29,07,52,1013.68
2023,04,29,07,53,1013.68
2023,04,29,07,54,1013.68
2023,04,29,07,55,1013.68
2023,04,29,07,56,1013.69
2023,04,29,07,57,1013.72
2023,04,29,07,58,1013.71
2023,04,29,07,59,1013.69
2023,04,29,08,00,1013.72
2023,04,29,08,01,1013.72
2023,04,29,08,02,1013.72
2023,04,29,08,03,1013.72
2023,04,29,08,04,1013.72
2023,04,29,08,05,1013.71
2023,04,29,08,06,1013.68
2023,04,29,08,07,1013.69
2023,04,29,08,08,1013.71
2023,04,29,08,09,1013.70
2023,04,29,08,10,1013.73
2023,04,29,08,11,1013.69
2023,04,29,08,12,1013.73
2023,04,29,08,13,1013.74
2023,04,29,08,14,1013.72
2023,04,29,08,15,1013.72
2023,04,29,08,16,1013.73
2023,04,29,08,17,1013.75
2023,04,29,08,18,1013.76
2023,04,29,08,19,1013.77
2023,04,29,08,20,1013.75
2023,04,29,08,21,1013.74
2023,04,29,08,22,1013.73
2023,04,29,08,23,1013.76
2023,04,29,08,24,1013.77
2023,04,29,08,25,1013.75
2023,04,29,08,26,1013.77
2023,04,29,08,27,1013.82
2023,04,29,08,28,1013.81
2023,04,29,08,29,1013.78
2023,04,29,08,30,1013.79
2023,04,29,08,31,1013.80
2023,04,29,08,32,1013.79
2023,04,29,08,33,1013.82
2023,04,29,08,34,1013.82
2023,04,29,08,35,1013.81
2023,04,29,08,36,1013.77
2023,04,29,08,37,1013.74
2023,04,29,08,38,1013.72
2023,04,29,08,39,1013.70
2023,04,29,08,40,1013.67
2023,04,29,08,41,1013.71
2023,04,29,08,42,1013.68
2023,04,29,08,43,1013.68
2023,04,29,08,44,1013.69
2023,04,29,08,45,1013.73
2023,04,29,08,46,1013.75
2023,04,29,08,47,1013.76
2023,04,29,08,48,1013.78
2023,04,29,08,49,1013.79
2023,04,29,08,50,1013.82
2023,04,29,08,51,1013.81
2023,04,29,08,52,1013.77
2023,04,29,08,53,1013.76
2023,04,29,08,54,1013.78
2023,04,29,08,55,1013.79
2023,04,29,08,56,1013.83
2023,04,29,08,57,1013.85
2023,04,29,08,58,1013.86
2023,04,29,08,59,1013.87
2023,04,29,09,00,1013.83
2023,04,29,09,01,1013.84
2023,04,29,09,02,1013.83
2023,04,29,09,03,1013.84
2023,04,29,09,04,1013.84
2023,04,29,09,05,1013.88
2023,04,29,09,06,1013.86
2023,04,29,09,07,1013.89
2023,04,29,09,08,1013.89
2023,04,29,09,09,1013.90
2023,04,29,09,10,1013.92
2023,04,29,09,11,1013.93
2023,04,29,09,12,1013.95
2023,04,29,09,13,1013.95
2023,04,29,09,14,1013.96
2023,04,29,09,15,1013.99
2023,04,29,09,16,1013.99
2023,04,29,09,17,1013.99
2023,04,29,09,18,1013.99
2023,04,29,09,19,1013.99
2023,04,29,09,20,1013.99
2023,04,29,09,21,1013.99
2023,04,29,09,22,1013.99
2023,04,29,09,23,1013.99
2023,04,29,09,24,1013.94
2023,04,29,09,25,1013.85
2023,04,29,09,26,1013.84
2023,04,29,09,27,1013.83
2023,04,29,09,28,1013.85
2023,04,29,09,29,1013.86
2023,04,29,09,30,1013.89
2023,04,29,09,31,1013.90
2023,04,29,09,32,1013.92
2023,04,29,09,33,1013.92
2023,04,29,09,34,1013.92
2023,04,29,09,35,1011.90
2023,04,29,09,36,1008.16
2023,04,29,09,37,1008.16
2023,04,29,09,38,1009.68
2023,04,29,09,39,1012.26
2023,04,29,09,40,1011.82
2023,04,29,09,41,1012.46
2023,04,29,09,42,1013.81
2023,04,29,09,43,1013.68
2023,04,29,09,44,1013.95
2023,04,29,09,45,1013.94
2023,04,29,09,46,1013.92
2023,04,29,09,47,1013.93
2023,04,29,09,48,1013.94
2023,04,29,09,49,1013.93
2023,04,29,09,50,1013.95
2023,04,29,09,51,1013.95
2023,04,29,09,52,1013.95
2023,04,29,09,53,1013.95
2023,04,29,09,54,1013.95
2023,04,29,09,55,1013.95
2023,04,29,09,56,1013.95
2023,04,29,09,57,1013.95
2023,04,29,09,58,1013.95
2023,04,29,09,59,1013.95
2023,04,29,10,00,1013.95
2023,04,29,10,01,1013.31
2023,04,29,10,02,1011.92
2023,04,29,10,03,1011.92
2023,04,29,10,04,1011.92
2023,04,29,10,05,1011.92
2023,04,29,10,06,1011.92
2023,04,29,10,07,1011.92
2023,04,29,10,08,1011.92
2023,04,29,10,09,1011.92
2023,04,29,10,10,1011.92
2023,04,29,10,11,1011.92
2023,04,29,10,12,1011.92
2023,04,29,10,13,1011.92
2023,04,29,10,14,1011.92
2023,04,29,10,15,1011.92
2023,04,29,10,16,1011.92
2023,04,29,10,17,1011.92
2023,04,29,10,18,1011.92
2023,04,29,10,19,1008.41
2023,04,29,10,20,1000.81
2023,04,29,10,21,1000.81
2023,04,29,10,22,1000.81
2023,04,29,10,23,1000.81
2023,04,29,10,24,1000.81
2023,04,29,10,25,1000.81
2023,04,29,10,26,1000.81
2023,04,29,10,27,1000.81
2023,04,29,10,28,1000.81
2023,04,29,10,29,1000.81
2023,04,29,10,30,1000.81
2023,04,29,10,31,989.69
2023,04,29,10,32,969.05
2023,04,29,10,33,969.05
2023,04,29,10,34,969.05
2023,04,29,10,35,969.05
2023,04,29,10,36,969.05
2023,04,29,10,37,969.05
2023,04,29,10,38,969.05
2023,04,29,10,39,969.05
2023,04,29,10,40,969.05
2023,04,29,10,41,969.05
2023,04,29,10,42,969.05
2023,04,29,10,43,969.05
2023,04,29,10,44,969.05
2023,04,29,10,45,969.05
2023,04,29,10,46,969.05
2023,04,29,10,47,962.91
2023,04,29,10,48,951.51
2023,04,29,10,49,951.51
2023,04,29,10,50,951.51
2023,04,29,10,51,951.51
2023,04,29,10,52,951.51
2023,04,29,10,53,951.51
2023,04,29,10,54,951.51
2023,04,29,10,55,951.51
2023,04,29,10,56,951.51
2023,04,29,10,57,951.51
2023,04,29,10,58,951.51
2023,04,29,10,59,951.51
2023,04,29,11,00,951.51
2023,04,29,11,01,951.51
2023,04,29,11,02,951.51
2023,04,29,11,03,951.51
2023,04,29,11,04,951.51
2023,04,29,11,05,951.51
2023,04,29,11,06,951.51
2023,04,29,11,07,951.51
2023,04,29,11,08,951.51
2023,04,29,11,09,951.51
2023,04,29,11,10,951.51
2023,04,29,11,11,951.51
2023,04,29,11,12,951.51
2023,04,29,11,13,951.51
2023,04,29,11,14,951.51
2023,04,29,11,15,951.51
2023,04,29,11,16,951.51
2023,04,29,11,17,951.51
2023,04,29,11,18,951.51
2023,04,29,11,19,951.51
2023,04,29,11,20,951.51
2023,04,29,11,21,951.51
2023,04,29,11,22,951.51
2023,04,29,11,23,951.51
2023,04,29,11,24,951.51
2023,04,29,11,25,951.51
2023,04,29,11,26,951.51
2023,04,29,11,27,951.51
2023,04,29,11,28,951.51
2023,04,29,11,29,951.51
2023,04,29,11,30,951.51
2023,04,29,11,31,951.51
2023,04,29,11,32,951.51
2023,04,29,11,33,951.51
2023,04,29,11,34,951.51
2023,04,29,11,35,951.51
2023,04,29,11,36,951.51
2023,04,29,11,37,951.51
2023,04,29,11,38,951.51
2023,04,29,11,39,951.51
2023,04,29,11,40,951.51
2023,04,29,11,41,951.51
2023,04,29,11,42,951.51
2023,04,29,11,43,951.51
2023,04,29,11,44,951.51
2023,04,29,11,45,951.51
2023,04,29,11,46,951.51
2023,04,29,11,47,951.51
2023,04,29,11,48,951.51
2023,04,29,11,49,951.51
2023,04,29,11,50,951.51
2023,04,29,11,51,951.51
2023,04,29,11,52,951.51
2023,04,29,11,53,951.51
2023,04,29,11,54,951.51
2023,04,29,11,55,951.51
2023,04,29,11,56,951.51
2023,04,29,11,57,951.51
2023,04,29,11,58,951.51
2023,04,29,11,59,951.51
2023,04,29,12,00,951.51
2023,04,29,12,01,951.51
2023,04,29,12,02,951.51
2023,04,29,12,03,951.51
2023,04,29,12,04,951.51
2023,04,29,12,05,951.51
2023,04,29,12,06,951.51
2023,04,29,12,07,951.51
2023,04,29,12,08,951.51
2023,04,29,12,09,951.51
2023,04,29,12,10,951.51
2023,04,29,12,11,951.51
2023,04,29,12,12,951.51
2023,04,29,12,13,951.51
2023,04,29,12,14,951.51
2023,04,29,12,15,951.51
2023,04,29,12,16,951.51
2023,04,29,12,17,951.51
2023,04,29,12,18,951.51
2023,04,29,12,19,951.51
2023,04,29,12,20,951.51
2023,04,29,12,21,951.51
2023,04,29,12,22,951.51
2023,04,29,12,23,951.51
2023,04,29,12,24,951.51
2023,04,29,12,25,951.51
2023,04,29,12,26,951.51
2023,04,29,12,27,951.51
2023,04,29,12,28,951.51
2023,04,29,12,29,951.51
2023,04,29,12,30,951.51
2023,04,29,12,31,951.51
2023,04,29,12,32,951.51
2023,04,29,12,33,951.51
2023,04,29,12,34,951.51
2023,04,29,12,35,951.51
2023,04,29,12,36,951.51
2023,04,29,12,37,951.51
2023,04,29,12,38,951.51
2023,04,29,12,39,951.51
2023,04,29,12,40,951.51
2023,04,29,12,41,951.51
2023,04,29,12,42,951.51
2023,04,29,12,43,951.51
2023,04,29,12,44,951.51
2023,04,29,12,45,951.51
2023,04,29,12,46,951.51
2023,04,29,12,47,951.51
2023,04,29,12,48,951.51
2023,04,29,12,49,951.51
2023,04,29,12,50,951.51
2023,04,29,12,51,951.51
2023,04,29,12,52,951.51
2023,04,29,12,53,951.51
2023,04,29,12,54,951.51
2023,04,29,12,55,951.51
2023,04,29,12,56,951.51
2023,04,29,12,57,951.51
2023,04,29,12,58,951.51
2023,04,29,12,59,951.51
2023,04,29,13,00,951.51
2023,04,29,13,01,951.51
2023,04,29,13,02,951.51
2023,04,29,13,03,951.51
2023,04,29,13,04,951.51
2023,04,29,13,05,951.51
2023,04,29,13,06,951.51
2023,04,29,13,07,951.51
2023,04,29,13,08,951.51
2023,04,29,13,09,951.51
2023,04,29,13,10,951.51
2023,04,29,13,11,951.51
2023,04,29,13,12,951.51
2023,04,29,13,13,951.51
2023,04,29,13,14,951.51
2023,04,29,13,15,951.51
2023,04,29,13,16,951.51
2023,04,29,13,17,951.51
2023,04,29,13,18,951.51
2023,04,29,13,19,951.51
2023,04,29,13,20,951.51
2023,04,29,13,21,951.51
2023,04,29,13,22,951.51
2023,04,29,13,23,951.51
2023,04,29,13,24,951.51
2023,04,29,13,25,951.51
2023,04,29,13,26,951.51
2023,04,29,13,27,951.51
2023,04,29,13,28,951.51
2023,04,29,13,29,951.51
2023,04,29,13,30,951.51
2023,04,29,13,31,951.51
2023,04,29,13,32,951.51
2023,04,29,13,33,951.51
2023,04,29,13,34,951.51
2023,04,29,13,35,951.51
2023,04,29,13,36,961.04
2023,04,29,13,37,983.27
2023,04,29,13,38,983.27
2023,04,29,13,39,983.27
2023,04,29,13,40,983.27
2023,04,29,13,41,983.27
2023,04,29,13,42,979.23
2023,04,29,13,43,967.93
2023,04,29,13,44,967.93
2023,04,29,13,45,967.93
2023,04,29,13,46,967.93
2023,04,29,13,47,967.93
2023,04,29,13,48,967.93
2023,04,29,13,49,971.18
2023,04,29,13,50,980.94
2023,04,29,13,51,980.94
2023,04,29,13,52,980.94
2023,04,29,13,53,980.94
2023,04,29,13,54,980.94
2023,04,29,13,55,989.21
2023,04,29,13,56,1008.50
2023,04,29,13,57,1008.50
2023,04,29,13,58,1008.50
2023,04,29,13,59,1008.50
2023,04,29,14,00,1004.49
2023,04,29,14,01,995.12
2023,04,29,14,02,995.12
2023,04,29,14,03,995.12
2023,04,29,14,04,995.12
2023,04,29,14,05,995.12
2023,04,29,14,06,995.12
2023,04,29,14,07,995.12
2023,04,29,14,08,995.12
2023,04,29,14,09,995.12
2023,04,29,14,10,995.12
2023,04,29,14,11,995.12
2023,04,29,14,12,995.12
2023,04,29,14,13,995.12
2023,04,29,14,14,995.12
2023,04,29,14,15,995.12
2023,04,29,14,16,995.12
2023,04,29,14,17,995.12
2023,04,29,14,18,995.12
2023,04,29,14,19,995.12
2023,04,29,14,20,985.43
2023,04,29,14,21,962.82
2023,04,29,14,22,962.82
2023,04,29,14,23,962.82
2023,04,29,14,24,962.82
2023,04,29,14,25,962.82
2023,04,29,14,26,962.82
2023,04,29,14,27,962.82
2023,04,29,14,28,962.82
2023,04,29,14,29,962.82
2023,04,29,14,30,962.82
2023,04,29,14,31,964.34
2023,04,29,14,32,967.91
2023,04,29,14,33,968.12
2023,04,29,14,34,968.58
2023,04,29,14,35,968.58
2023,04,29,14,36,968.58
2023,04,29,14,37,968.58
2023,04,29,14,38,968.58
2023,04,29,14,39,968.58
2023,04,29,14,40,966.22
2023,04,29,14,41,960.72
2023,04,29,14,42,961.69
2023,04,29,14,43,964.41
2023,04,29,14,44,964.41
2023,04,29,14,45,964.41
2023,04,29,14,46,964.41
2023,04,29,14,47,965.45
2023,04,29,14,48,968.58
2023,04,29,14,49,968.25
2023,04,29,14,50,967.41
2023,04,29,14,51,967.22
2023,04,29,14,52,967.22
2023,04,29,14,53,966.63
2023,04,29,14,54,964.99
2023,04,29,14,55,964.99
2023,04,29,14,56,964.99
2023,04,29,14,57,964.99
2023,04,29,14,58,964.99
2023,04,29,14,59,964.99
2023,04,29,15,00,964.99
2023,04,29,15,01,964.99
2023,04,29,15,02,964.99
2023,04,29,15,03,964.99
2023,04,29,15,04,964.99
2023,04,29,15,05,964.99
2023,04,29,15,06,964.99
2023,04,29,15,07,964.99
2023,04,29,15,08,964.99
2023,04,29,15,09,964.99
2023,04,29,15,10,964.99
2023,04,29,15,11,964.99
2023,04,29,15,12,964.99
2023,04,29,15,13,964.99
2023,04,29,15,14,964.99
2023,04,29,15,15,964.99
2023,04,29,15,16,964.99
2023,04,29,15,17,964.99
2023,04,29,15,18,992.84
2023,04,29,15,19,1057.84
2023,04,29,15,20,1057.84
2023,04,29,15,21,1057.84
2023,04,29,15,22,1057.84
2023,04,29,15,23,1057.84
2023,04,29,15,24,1057.84
2023,04,29,15,25,1057.84
2023,04,29,15,26,1057.84
2023,04,29,15,27,1057.84
2023,04,29,15,28,1057.84
2023,04,29,15,29,1057.84
2023,04,29,15,30,1057.84
2023,04,29,15,31,1057.84
2023,04,29,15,32,1057.84
2023,04,29,15,33,1057.84
2023,04,29,15,34,1057.84
2023,04,29,15,35,1057.84
2023,04,29,15,36,1057.84
2023,04,29,15,37,1057.84
2023,04,29,15,38,1057.84
2023,04,29,15,39,1057.84
2023,04,29,15,40,1057.84
2023,04,29,15,41,1057.84
2023,04,29,15,42,1057.84
2023,04,29,15,43,1057.84
2023,04,29,15,44,1057.84
2023,04,29,15,45,1057.84
2023,04,29,15,46,1057.84
2023,04,29,15,47,1057.84
2023,04,29,15,48,1057.84
2023,04,29,15,49,1057.84
2023,04,29,15,50,1057.84
2023,04,29,15,51,1057.84
2023,04,29,15,52,1057.84
2023,04,29,15,53,1057.84
2023,04,29,15,54,1057.84
2023,04,29,15,55,1057.84
2023,04,29,15,56,1057.84
2023,04,29,15,57,1057.84
2023,04,29,15,58,1057.84
2023,04,29,15,59,1057.84
2023,04,29,16,00,1057.84
2023,04,29,16,01,1057.84
2023,04,29,16,02,1057.84
2023,04,29,16,03,1057.84
2023,04,29,16,04,1057.84
2023,04,29,16,05,1057.84
2023,04,29,16,06,1057.84
2023,04,29,16,07,1057.84
2023,04,29,16,08,1057.84
2023,04,29,16,09,1057.84
2023,04,29,16,10,1057.84
2023,04,29,16,11,1057.84